When you browse on this site, cookies collect data to enhance your experience and personalize the content and advertising you see.
Visit our Privacy Policy to learn more. By continuing to use the site, you agree to this use of cookies and data.
  • Em Portugal
  • Lista de países
  • Para 7 dias
  • Temperatura da água
  • Mapas de satélite
  • Mapa do tempo
  • Widgets de tempo
  • user-avatar
    Iniciar Sessão

    Previsão horária em Otok

    Hoje, 21 Janeiro, Segunda-feira

    Tempo Temperatura Precipitação Vento Pressão Humidade
    00:00 -4°C° 0 mm 0 m/s 748 mmHg 66%
    01:00 -5°C° 0 mm 0 m/s 748 mmHg 66%
    02:00 -5°C° 0 mm 0 m/s 748 mmHg 66%
    03:00 -5°C° 0 mm 0 m/s 748 mmHg 66%
    04:00 -5°C° 0 mm 0 m/s 748 mmHg 67%
    05:00 -5°C° 0 mm 0 m/s 748 mmHg 66%
    06:00 -5°C° 0 mm 0 m/s 748 mmHg 66%
    07:00 -5°C° 0 mm 0 m/s 748 mmHg 65%
    08:00 -4°C° 0 mm 0 m/s 748 mmHg 61%
    09:00 -3°C° 0 mm 0 m/s 748 mmHg 57%
    10:00 -3°C° 0 mm 0 m/s 748 mmHg 53%
    11:00 -2°C° 0 mm 0 m/s 748 mmHg 49%
    12:00 -1°C° 0 mm 0 m/s 748 mmHg 45%
    13:00 0°C° 0 mm 0 m/s 747 mmHg 42%
    14:00 0°C° 0 mm 0 m/s 747 mmHg 45%
    15:00 -1°C° 0 mm 0 m/s 747 mmHg 47%
    16:00 -2°C° 0 mm 0 m/s 746 mmHg 50%
    17:00 -2°C° 0 mm 0 m/s 746 mmHg 53%
    18:00 -2°C° 0 mm 1 m/s 746 mmHg 56%
    19:00 -2°C° 0 mm 1 m/s 746 mmHg 58%
    20:00 -2°C° 0 mm 1 m/s 745 mmHg 59%
    21:00 -3°C° 0 mm 1 m/s 745 mmHg 60%
    22:00 -5°C° 0 mm 2 m/s 745 mmHg 60%
    23:00 -5°C° 0 mm 2 m/s 745 mmHg 60%

    Amanhã, 22 Janeiro, Terça-feira

    Tempo Temperatura Precipitação Vento Pressão Humidade
    00:00 -5°C° 0 mm 2 m/s 744 mmHg 59%
    01:00 -5°C° 0 mm 2 m/s 744 mmHg 58%
    02:00 -5°C° 0 mm 2 m/s 744 mmHg 60%
    03:00 -5°C° 0 mm 2 m/s 743 mmHg 62%
    04:00 -5°C° 0 mm 2 m/s 743 mmHg 64%
    05:00 -5°C° 0 mm 2 m/s 743 mmHg 65%
    06:00 -3°C° 0 mm 1 m/s 742 mmHg 67%
    07:00 -4°C° 0 mm 1 m/s 742 mmHg 69%
    08:00 -3°C° 0 mm 1 m/s 742 mmHg 65%
    09:00 -2°C° 0 mm 1 m/s 742 mmHg 62%
    10:00 -1°C° 0 mm 1 m/s 742 mmHg 59%
    11:00 0°C° 0 mm 1 m/s 741 mmHg 55%
    12:00 0°C° 0 mm 1 m/s 741 mmHg 52%
    13:00 +1°C° 0 mm 1 m/s 740 mmHg 48%
    14:00 +1°C° 0 mm 1 m/s 739 mmHg 51%
    15:00 0°C° 0 mm 1 m/s 739 mmHg 54%
    16:00 0°C° 0 mm 1 m/s 738 mmHg 57%
    17:00 -3°C° 0 mm 2 m/s 738 mmHg 60%
    18:00 -4°C° 0 mm 2 m/s 738 mmHg 62%
    19:00 -4°C° 0 mm 2 m/s 737 mmHg 65%
    20:00 -5°C° 0 mm 2 m/s 737 mmHg 64%
    21:00 -5°C° 0 mm 2 m/s 737 mmHg 62%
    22:00 -5°C° 0 mm 2 m/s 737 mmHg 61%
    23:00 -5°C° 0 mm 2 m/s 736 mmHg 61%

    Depois de amanhã, 23 Janeiro, Quarta-feira

    Tempo Temperatura Precipitação Vento Pressão Humidade
    00:00 -5°C° 0 mm 2 m/s 736 mmHg 62%
    01:00 -5°C° 0 mm 2 m/s 736 mmHg 62%
    02:00 -5°C° 0 mm 2 m/s 735 mmHg 63%
    03:00 -6°C° 0 mm 2 m/s 735 mmHg 63%
    04:00 -6°C° 0 mm 2 m/s 735 mmHg 64%
    05:00 -6°C° 0 mm 2 m/s 735 mmHg 66%
    06:00 -6°C° 0 mm 2 m/s 735 mmHg 67%
    07:00 -7°C° 0 mm 3 m/s 734 mmHg 69%
    08:00 -6°C° 0 mm 3 m/s 735 mmHg 67%
    09:00 -7°C° 0 mm 4 m/s 735 mmHg 65%
    10:00 -5°C° 0 mm 4 m/s 735 mmHg 63%
    11:00 -5°C° 0 mm 4 m/s 735 mmHg 60%
    12:00 -5°C° 0 mm 5 m/s 735 mmHg 58%
    13:00 -4°C° 0 mm 5 m/s 735 mmHg 56%
    14:00 -5°C° 0 mm 5 m/s 735 mmHg 60%
    15:00 -5°C° 0 mm 5 m/s 735 mmHg 63%
    16:00 -5°C° 0 mm 4 m/s 735 mmHg 67%
    17:00 -5°C° 0 mm 4 m/s 735 mmHg 71%
    18:00 -7°C° 0 mm 4 m/s 736 mmHg 75%
    19:00 -7°C° 0 mm 4 m/s 736 mmHg 78%
    20:00 -7°C° 0 mm 4 m/s 736 mmHg 79%
    21:00 -8°C° 0 mm 4 m/s 737 mmHg 80%
    22:00 -8°C° 0 mm 4 m/s 737 mmHg 81%
    23:00 -8°C° 0 mm 4 m/s 737 mmHg 81%

    24 Janeiro, Quinta-feira

    Tempo Temperatura Precipitação Vento Pressão Humidade
    00:00 -8°C° 0 mm 4 m/s 738 mmHg 81%
    01:00 -8°C° 0 mm 4 m/s 738 mmHg 81%
    02:00 -8°C° 0 mm 4 m/s 738 mmHg 82%
    03:00 -9°C° 0 mm 4 m/s 738 mmHg 82%
    04:00 -9°C° 0 mm 4 m/s 738 mmHg 82%
    05:00 -8°C° 0 mm 3 m/s 739 mmHg 82%
    06:00 -8°C° 0 mm 3 m/s 739 mmHg 82%
    07:00 -8°C° 0 mm 3 m/s 740 mmHg 82%
    08:00 -8°C° 0 mm 3 m/s 740 mmHg 78%
    09:00 -8°C° 0 mm 4 m/s 741 mmHg 75%
    10:00 -8°C° 0 mm 4 m/s 741 mmHg 72%
    11:00 -7°C° 0 mm 4 m/s 741 mmHg 69%
    12:00 -5°C° 0 mm 4 m/s 741 mmHg 66%
    13:00 -4°C° 0 mm 4 m/s 741 mmHg 63%
    14:00 -5°C° 0 mm 3 m/s 741 mmHg 64%
    15:00 -5°C° 0 mm 3 m/s 742 mmHg 66%
    16:00 -5°C° 0 mm 3 m/s 742 mmHg 68%
    17:00 -6°C° 0 mm 3 m/s 742 mmHg 71%
    18:00 -5°C° 0 mm 2 m/s 742 mmHg 73%
    19:00 -6°C° 0 mm 2 m/s 743 mmHg 76%
    20:00 -6°C° 0 mm 2 m/s 743 mmHg 77%
    21:00 -4°C° 0 mm 1 m/s 743 mmHg 79%
    22:00 -4°C° 0 mm 1 m/s 744 mmHg 80%
    23:00 -4°C° 0 mm 1 m/s 744 mmHg 81%

    25 Janeiro, Sexta-feira

    Tempo Temperatura Precipitação Vento Pressão Humidade
    00:00 -4°C° 0 mm 1 m/s 744 mmHg 82%
    01:00 -6°C° 0 mm 1 m/s 744 mmHg 83%
    02:00 -6°C° 0 mm 1 m/s 744 mmHg 84%
    03:00 -6°C° 0 mm 0 m/s 744 mmHg 84%
    04:00 -6°C° 0 mm 0 m/s 744 mmHg 84%
    05:00 -4°C° 0 mm 1 m/s 744 mmHg 84%
    06:00 -4°C° 0 mm 1 m/s 744 mmHg 84%
    07:00 -4°C° 0 mm 1 m/s 744 mmHg 84%
    08:00 -4°C° 0 mm 1 m/s 745 mmHg 82%
    09:00 -4°C° 0 mm 1 m/s 745 mmHg 79%
    10:00 -3°C° 0 mm 1 m/s 745 mmHg 77%
    11:00 -3°C° 0 mm 1 m/s 745 mmHg 73%
    12:00 -2°C° 0 mm 1 m/s 744 mmHg 69%
    13:00 -2°C° 0 mm 1 m/s 744 mmHg 65%
    14:00 -2°C° 0 mm 1 m/s 744 mmHg 65%
    15:00 -2°C° 0 mm 1 m/s 744 mmHg 66%
    16:00 -2°C° 0 mm 1 m/s 743 mmHg 66%
    17:00 -2°C° 0 mm 1 m/s 743 mmHg 68%
    18:00 -3°C° 0 mm 1 m/s 743 mmHg 69%
    19:00 -5°C° 0 mm 2 m/s 743 mmHg 71%
    20:00 -5°C° 0 mm 2 m/s 742 mmHg 69%
    21:00 -5°C° 0 mm 2 m/s 742 mmHg 67%
    22:00 -6°C° 0 mm 3 m/s 742 mmHg 64%
    23:00 -6°C° 0 mm 3 m/s 741 mmHg 61%

    26 Janeiro, Sábado

    Tempo Temperatura Precipitação Vento Pressão Humidade
    00:00 -5°C° 0 mm 3 m/s 740 mmHg 58%
    01:00 -5°C° 0 mm 3 m/s 740 mmHg 55%
    02:00 -4°C° 0.1 mm 4 m/s 739 mmHg 62%
    03:00 -4°C° 0.1 mm 4 m/s 738 mmHg 69%
    04:00 -4°C° 0.1 mm 4 m/s 738 mmHg 75%
    05:00 -4°C° 0.2 mm 5 m/s 737 mmHg 79%
    06:00 -2°C° 0.2 mm 5 m/s 737 mmHg 83%
    07:00 -2°C° 0.2 mm 5 m/s 737 mmHg 86%
    08:00 -1°C° 0.1 mm 5 m/s 737 mmHg 87%
    09:00 -1°C° 0.1 mm 5 m/s 737 mmHg 88%
    10:00 -1°C° 0.1 mm 5 m/s 737 mmHg 89%
    11:00 0°C° 0 mm 4 m/s 737 mmHg 88%
    12:00 0°C° 0 mm 4 m/s 736 mmHg 88%
    13:00 +1°C° 0 mm 3 m/s 736 mmHg 87%
    14:00 +1°C° 0 mm 3 m/s 736 mmHg 88%
    15:00 +2°C° 0 mm 2 m/s 736 mmHg 90%
    16:00 +2°C° 0 mm 2 m/s 735 mmHg 91%
    17:00 +1°C° 0 mm 2 m/s 735 mmHg 91%
    18:00 +1°C° 0 mm 2 m/s 735 mmHg 91%
    19:00 +1°C° 0 mm 2 m/s 734 mmHg 90%
    20:00 +1°C° 0 mm 2 m/s 734 mmHg 90%
    21:00 +1°C° 0 mm 2 m/s 733 mmHg 90%
    22:00 +2°C° 0 mm 2 m/s 733 mmHg 90%
    23:00 +1°C° 0 mm 3 m/s 733 mmHg 90%
    Mostrar mais